EDT,Max TemperatureF,Mean TemperatureF,Min TemperatureF,Max Dew PointF,MeanDew PointF,Min DewpointF,Max Humidity, Mean Humidity, Min Humidity, Max Sea Level PressureIn, Mean Sea Level PressureIn, Min Sea Level PressureIn, Max VisibilityMiles, Mean VisibilityMiles, Min VisibilityMiles, Max Wind SpeedMPH, Mean Wind SpeedMPH, Max Gust SpeedMPH,PrecipitationIn, CloudCover, Events, WindDirDegrees
2011-10-1,60,51,42,55,44,39,100,89,78,29.95,29.87,29.71,10,6,2,23,13,29,0.76,8,Rain,352
2011-10-2,54,49,44,52,48,43,100,96,92,29.95,29.93,29.90,10,8,1,14,7,26,0.33,8,Rain,339
2011-10-3,59,55,50,55,53,48,100,93,86,30.07,30.02,29.94,10,5,0,9,2,29,0.03,8,Fog-Rain,337
2011-10-4,59,56,52,55,53,50,100,93,86,30.09,30.05,30.03,10,6,0,17,7,23,T,8,Fog,357
2011-10-5,59,48,36,50,44,30,100,69,38,30.28,30.10,30.02,10,10,10,32,7,37,0.00,5,,351
2011-10-6,55,43,31,37,32,30,96,69,41,30.43,30.41,30.28,10,10,10,18,4,25,0.00,0,,352
2011-10-7,64,49,33,36,35,34,100,50,0,30.43,30.43,30.38,10,10,10,12,3,15,0.00,1,,94
2011-10-8,74,58,41,45,44,43,100,72,44,30.43,30.43,30.39,10,10,10,14,4,18,0.00,0,,100
2011-10-9,80,63,46,52,49,48,100,71,42,30.43,30.42,30.35,10,10,9,10,3,13,0.00,0,,53
2011-10-10,76,62,48,54,53,52,100,75,49,30.43,30.41,30.24,9,7,6,13,3,16,0.00,0,,116
2011-10-11,67,56,44,48,47,46,100,66,32,30.43,30.41,30.22,10,9,6,8,2,13,0.00,0,,77
2011-10-12,67,56,45,49,45,43,100,74,48,30.19,30.13,30.04,10,10,10,16,6,22,0.00,4,,165
2011-10-13,68,60,51,55,52,44,100,84,67,30.03,29.87,29.73,10,10,6,13,4,22,0.16,5,Fog-Rain,161
2011-10-14,70,63,55,63,59,54,100,87,73,29.71,29.47,29.22,10,7,1,21,6,36,1.12,7,Rain-Thunderstorm,154
2011-10-15,58,54,49,57,48,40,100,81,62,29.48,29.35,29.22,10,9,2,25,14,38,0.27,7,Rain-Thunderstorm,196
2011-10-16,58,54,49,46,40,36,80,62,43,29.69,29.60,29.51,10,10,10,18,10,26,T,8,Rain,213
2011-10-17,56,50,43,47,42,35,100,75,50,29.68,29.60,29.52,10,10,2,22,7,33,0.19,6,Rain,213
2011-10-18,56,51,46,46,43,40,100,80,59,29.93,29.79,29.67,10,10,8,14,5,18,0.01,6,Rain,195
2011-10-19,61,54,46,50,45,41,96,74,51,29.97,29.89,29.66,10,10,10,16,4,22,0.02,7,Rain,85
2011-10-20,71,61,50,57,53,42,96,77,57,29.61,29.41,29.27,10,9,2,21,9,32,0.20,7,Rain,155
2011-10-21,56,52,48,47,43,41,86,75,64,29.92,29.74,29.57,10,10,7,18,7,23,0.04,7,Rain,197
2011-10-22,50,45,40,46,43,39,96,81,66,30.08,30.00,29.92,10,9,3,10,4,13,0.06,7,Rain,276
2011-10-23,51,43,35,43,38,34,100,75,50,30.13,30.10,30.07,10,10,8,6,1,8,0.00,6,,175
2011-10-24,63,49,35,48,41,34,100,73,46,30.11,29.97,29.83,10,9,2,22,7,29,0.29,3,Rain,194
2011-10-25,53,44,35,45,38,32,93,72,50,30.01,29.95,29.88,10,10,10,20,8,28,T,5,Rain,276
2011-10-26,50,42,34,38,36,32,92,74,56,30.02,29.90,29.81,10,10,9,14,3,16,0.00,6,,305
2011-10-27,41,39,36,34,27,23,79,65,50,29.96,29.85,29.80,10,10,2,16,8,21,0.00,8,,351
2011-10-28,47,38,28,27,23,16,78,53,28,30.27,30.15,29.99,10,10,10,21,6,26,0.00,2,,315
2011-10-29,41,34,27,27,24,22,92,69,45,30.29,30.19,30.03,10,10,10,9,4,12,0.00,3,,16
2011-10-30,47,40,32,32,28,22,96,67,37,30.28,30.10,30.00,10,7,1,18,8,22,0.01,6,Snow,348
2011-10-31,51,41,31,31,29,26,92,67,42,30.37,30.32,30.29,10,10,10,20,7,24,0.00,2,,180